Home   Weather   Alexandria   Past weeks

Flag for USA Past Weather in Alexandria, Virginia, USA — Yesterday and Last 2 Weeks

56 °F


Feels Like: 51 °F
Forecast: 48 / 58 °F
Wind: 23 mph from Northwest

Location: Reagan National Airport

Current Time: Oct 22, 2016 at 3:11:39 AM

Latest Report: Oct 22, 2016 at 2:52 AM

Visibility: 10 mi

Pressure: 29.60 "Hg

Humidity: 67%

Dew Point: 45 °F

Location of AlexandriaLocation

Past Weather in Alexandria — Graph


Alexandria Temperature Yesterday

Maximum temperature yesterday: 79 °F (at 12:52 PM)
Minimum temperature yesterday: 60 °F (at 8:52 PM)
Average temperature yesterday: 67 °F

High & Low Weather Summary for the Past Weeks

High87 °F (Oct 19, 1:52 PM)100% (Oct 8, 2:52 PM)30.49 "Hg (Oct 8, 2:52 PM)
Low46 °F (Oct 11, 5:52 AM)32% (Oct 10, 3:52 PM)29.56 "Hg (Oct 21, 1:52 PM)
Average64 °F75%30.12 "Hg
* Reported Oct 7 1:52 AM — Oct 22 1:52 AM, Alexandria, Weather by CustomWeather, © 2016

Note: Actual official high and low records may vary slightly from our data, if they occured in-between our weather recording intervals... More about our weather records


Alexandria Weather History for the Previous 24 Hours

Scroll right to see more
Time TempWeatherWind HumidityBarometerVisibility
1:52 AM
Sat, Oct 22
57 °FMostly cloudy.22 mph64%29.59 "Hg10 mi
12:52 AM58 °FOvercast.24 mph70%29.60 "Hg10 mi
11:52 PM
Fri, Oct 21
60 °FOvercast.16 mph69%29.60 "Hg10 mi
10:56 PM60 °FMostly cloudy.14 mph75%29.59 "Hg10 mi
9:52 PM60 °FOvercast.12 mph78%29.59 "Hg10 mi
8:52 PM60 °FMostly cloudy.15 mph80%29.58 "Hg10 mi
7:52 PM62 °FLight rain. Overcast.17 mph75%29.59 "Hg10 mi
6:52 PM65 °FMild.N/A70%29.59 "HgN/A
5:52 PM65 °FMostly cloudy.10 mph76%29.58 "Hg10 mi
4:52 PM65 °FOvercast.10 mph81%29.58 "Hg10 mi
3:52 PM64 °FMore clouds than sun.9 mph84%29.58 "Hg10 mi
3:02 PM63 °FLight rain. Mostly cloudy.9 mph90%29.59 "Hg8 mi
2:52 PM63 °FHeavy rain. Fog.14 mph87%29.59 "Hg3 mi
1:52 PM79 °FBroken clouds.12 mph67%29.56 "Hg10 mi
12:52 PM79 °FScattered clouds.13 mph62%29.61 "Hg10 mi
11:52 AM76 °FScattered clouds.13 mph72%29.65 "Hg10 mi
10:52 AM73 °FPassing clouds.12 mph76%29.68 "Hg10 mi
9:52 AM71 °FScattered clouds.12 mph81%29.71 "Hg10 mi
8:52 AM69 °FScattered clouds.10 mph90%29.72 "Hg10 mi
7:52 AM67 °FScattered clouds.13 mph93%29.73 "Hg10 mi
6:52 AM67 °FPassing clouds.12 mph93%29.75 "Hg10 mi
5:52 AM68 °FPassing clouds.9 mph90%29.78 "Hg10 mi
4:52 AM68 °FPartly cloudy.14 mph90%29.79 "Hg10 mi
3:52 AM69 °FPassing clouds.12 mph87%29.80 "Hg10 mi
Weather by CustomWeather, © 2016

See weather overviewHow to use our weather pages